FW9258 Weather Reports


time (UTC)temp
F
wind
direction
speed
knots
gust
knots
rain 1hr
in
rain 24hr
in
rain mn
in
humidity
%
barometer
mb
20260502210514 50 355 2.6 4.3 0.00 0.26 0.26 93 1011.9
20260502210034 50 347 1.7 4.3 0.00 0.26 0.26 93 1012.0
20260502205515 51 350 1.7 3.5 0.00 0.26 0.26 93 1011.9
20260502205015 51 351 2.6 3.5 0.00 0.26 0.26 93 1011.9
20260502204532 51 348 1.7 3.5 0.00 0.26 0.26 93 1012.0
20260502204016 51 356 1.7 3.5 0.00 0.26 0.26 93 1012.0
20260502203516 51 356 1.7 2.6 0.00 0.26 0.26 93 1012.1
20260502203031 51 337 0.9 2.6 0.00 0.26 0.26 93 1012.2
20260502202515 51 0 0.9 1.7 0.00 0.26 0.26 93 1012.1
20260502202015 51 335 0.0 1.7 0.00 0.26 0.26 93 1012.2
20260502201535 50 335 0.0 1.7 0.00 0.26 0.26 93 1012.2
20260502201016 50 335 0.9 1.7 0.00 0.26 0.26 93 1012.2
20260502200517 50 335 0.9 1.7 0.00 0.25 0.25 93 1012.2
20260502200035 50 337 0.9 1.7 0.00 0.25 0.25 93 1012.3
20260502195516 50 337 0.9 1.7 0.00 0.25 0.25 93 1012.2
20260502195015 50 334 0.9 1.7 0.00 0.25 0.25 93 1012.2
20260502194534 51 333 0.9 1.7 0.00 0.25 0.25 93 1012.3
20260502194110 51 328 0.0 0.9 0.00 0.25 0.25 93 1012.3
20260502193519 51 0 0.0 1.7 0.00 0.25 0.25 93 1012.3
20260502193036 51 316 0.0 1.7 0.00 0.25 0.25 93 1012.3
20260502192515 51 310 0.0 1.7 0.00 0.25 0.25 93 1012.4
20260502192015 51 311 0.0 1.7 0.01 0.25 0.25 93 1012.4
20260502191534 51 319 0.0 2.6 0.01 0.25 0.25 93 1012.4
20260502191019 51 319 1.7 2.6 0.01 0.25 0.25 93 1012.5
20260502190517 51 315 0.0 0.9 0.02 0.25 0.25 93 1012.5
20260502190034 51 316 0.0 0.9 0.02 0.25 0.25 93 1012.6
20260502185515 51 316 0.0 0.9 0.03 0.25 0.25 93 1012.6
20260502185015 51 0 0.0 0.0 0.03 0.25 0.25 93 1012.7
20260502184532 51 0 0.0 0.0 0.03 0.25 0.25 93 1012.8
20260502184015 51 0 0.0 0.0 0.04 0.25 0.25 92 1012.7
20260502183517 51 0 0.0 0.0 0.05 0.25 0.25 92 1012.7
20260502183035 51 0 0.0 0.0 0.06 0.25 0.25 92 1012.8
20260502182516 52 0 0.0 1.7 0.07 0.25 0.25 92 1012.8
20260502182015 52 0 0.0 1.7 0.07 0.24 0.24 92 1012.8
20260502181532 52 334 0.0 1.7 0.08 0.24 0.24 92 1012.9
20260502181015 52 332 0.0 0.9 0.09 0.24 0.24 92 1013.0
20260502180516 52 0 0.0 0.9 0.08 0.23 0.23 92 1013.1
20260502170519 52 0 0.0 0.9 0.06 0.14 0.14 92 1013.6
20260502164015 52 0 0.0 0.9 0.06 0.11 0.11 92 1013.6
20260502163515 52 0 0.0 0.0 0.06 0.11 0.11 92 1013.6
20260502163041 52 0 0.0 0.9 0.06 0.10 0.10 92 1013.7
20260502162515 52 0 0.0 1.7 0.06 0.09 0.09 91 1013.7
20260502162015 52 0 0.0 2.6 0.05 0.08 0.08 91 1013.7
20260502161554 52 352 0.9 2.6 0.06 0.08 0.08 91 1013.8
20260502161021 52 0 0.0 2.6 0.05 0.07 0.07 91 1013.7
20260502160515 53 304 0.0 2.6 0.06 0.07 0.07 91 1013.8
20260502152015 53 0 0.0 0.0 0.03 0.03 0.03 90 1014.1
20260502151531 54 328 0.0 0.0 0.02 0.02 0.02 91 1014.1
20260502151015 54 0 0.0 0.9 0.02 0.02 0.02 91 1014.2
20260502150518 54 0 0.0 0.9 0.01 0.01 0.01 90 1014.3
20260502130516 58 0 0.0 3.5 0.00 0.00 0.00 79 1015.1
20260502123516 57 314 1.7 5.2 0.00 0.00 0.00 81 1015.5
20260502123106 58 349 3.5 6.1 0.00 0.00 0.00 80 1015.6
20260502122516 58 77 3.5 6.1 0.00 0.00 0.00 81 1015.7
20260502122022 58 164 2.6 5.2 0.00 0.00 0.00 79 1015.7
20260502121532 58 142 0.9 3.5 0.00 0.00 0.00 79 1015.8
20260502121016 58 322 1.7 3.5 0.00 0.00 0.00 77 1015.8
20260502120519 58 317 0.0 4.3 0.00 0.00 0.00 80 1015.9
20260502115520 58 113 0.9 4.3 0.00 0.00 0.00 81 1016.0
20260502115018 57 329 1.7 4.3 0.00 0.00 0.00 82 1016.1
20260502114532 56 338 2.6 5.2 0.00 0.00 0.00 82 1016.1
20260502114015 56 59 3.5 6.1 0.00 0.00 0.00 81 1016.2
20260502113515 56 110 3.5 6.1 0.00 0.00 0.00 82 1016.2
20260502113034 57 93 2.6 6.1 0.00 0.00 0.00 82 1016.4
20260502112515 57 175 1.7 5.2 0.00 0.00 0.00 82 1016.5
20260502112016 57 89 2.6 7.0 0.00 0.00 0.00 82 1016.6
20260502111533 57 273 3.5 7.0 0.00 0.00 0.00 81 1016.7
20260502111021 57 297 0.0 7.8 0.00 0.00 0.00 84 1016.8
20260502110519 56 54 3.5 7.8 0.00 0.00 0.00 83 1016.8
20260502110045 56 57 4.3 7.8 0.00 0.00 0.00 83 1017.0
20260502105517 55 105 4.3 7.0 0.00 0.00 0.00 83 1017.1
20260502105018 55 106 3.5 7.0 0.00 0.00 0.00 85 1017.3
20260502104535 55 122 4.3 7.8 0.00 0.00 0.00 85 1017.3
20260502104015 55 114 4.3 7.8 0.00 0.00 0.00 84 1017.4
20260502103515 54 148 2.6 7.0 0.00 0.00 0.00 84 1017.3
20260502103034 54 67 2.6 6.1 0.00 0.00 0.00 84 1017.4
20260502102515 54 121 3.5 6.1 0.00 0.00 0.00 84 1017.3
20260502102026 54 316 2.6 6.1 0.00 0.00 0.00 85 1017.3
20260502101531 54 316 2.6 6.1 0.00 0.00 0.00 84 1017.4
20260502101020 54 117 3.5 7.0 0.00 0.00 0.00 84 1017.3
20260502100516 54 350 3.5 7.0 0.00 0.00 0.00 85 1017.2
20260502091016 55 155 3.5 7.8 0.00 0.00 0.00 84 1017.7
20260502090516 55 349 2.6 6.1 0.00 0.00 0.00 86 1017.6
20260502071535 51 51 2.6 5.2 0.00 0.00 0.00 93 1018.1
20260502071019 51 302 2.6 6.1 0.00 0.00 0.00 93 1018.0
20260502070518 51 103 2.6 6.1 0.00 0.00 0.00 93 1018.1
20260502070035 51 305 1.7 6.1 0.00 0.00 0.00 93 1018.0
20260502065518 51 313 0.9 4.3 0.00 0.00 0.00 93 1018.0
20260502065016 51 219 1.7 5.2 0.00 0.00 0.00 93 1018.0
20260502064535 51 287 1.7 5.2 0.00 0.00 0.00 93 1018.0
20260502064015 51 17 1.7 3.5 0.00 0.00 0.00 93 1017.9
20260502063519 51 352 0.9 2.6 0.00 0.00 0.00 93 1017.9
20260502063039 51 335 0.0 0.9 0.00 0.00 0.00 93 1017.9
20260502062515 51 329 0.0 0.9 0.00 0.00 0.00 93 1018.0
20260502062016 51 0 0.0 0.9 0.00 0.00 0.00 93 1018.1
20260502061530 50 0 0.0 1.7 0.00 0.00 0.00 93 1018.1
20260502061015 50 0 0.0 1.7 0.00 0.00 0.00 93 1018.1
20260502060515 51 326 0.0 2.6 0.00 0.00 0.00 93 1018.1
20260502060037 51 0 0.0 2.6 0.00 0.00 0.00 94 1018.2
20260502055516 51 316 0.0 2.6 0.00 0.00 0.00 94 1018.3
20260502055016 51 316 0.9 3.5 0.00 0.00 0.00 94 1018.3
20260502054535 50 285 0.9 5.2 0.00 0.00 0.00 94 1018.3
20260502054017 50 231 0.9 5.2 0.00 0.00 0.00 94 1018.4
20260502053516 50 0 1.7 5.2 0.00 0.00 0.00 94 1018.4
20260502053035 50 314 1.7 5.2 0.00 0.00 0.00 94 1018.4
20260502052517 50 328 1.7 3.5 0.00 0.00 0.00 94 1018.3
20260502052015 50 300 1.7 3.5 0.00 0.00 0.00 94 1018.3
20260502051535 50 323 1.7 6.1 0.00 0.00 0.00 94 1018.3
20260502051015 50 351 1.7 6.1 0.00 0.00 0.00 94 1018.3
20260502050516 50 301 0.9 4.3 0.00 0.00 0.00 94 1018.3
20260502050036 50 296 0.9 3.5 0.00 0.00 0.00 94 1018.3
20260502045520 50 265 0.9 2.6 0.00 0.00 0.00 94 1018.3
20260502045016 50 293 0.9 2.6 0.00 0.00 0.00 94 1018.3
20260502044536 50 303 0.0 0.9 0.00 0.00 0.00 94 1018.3
20260502044015 50 328 0.0 0.0 0.00 0.00 0.00 93 1018.3
20260502043515 50 0 0.0 2.6 0.00 0.00 0.00 93 1018.3
20260502043032 50 0 0.0 2.6 0.00 0.00 0.00 94 1018.3
20260502042516 50 337 0.0 1.7 0.00 0.00 0.00 94 1018.3
20260502042018 50 0 0.0 0.0 0.00 0.00 0.00 93 1018.3
20260502041534 50 0 0.0 0.0 0.00 0.00 0.00 94 1018.3
20260502041017 50 0 0.0 0.0 0.00 0.00 0.00 93 1018.3
20260502040515 50 0 0.0 0.0 0.00 0.00 0.00 94 1018.4
20260502040035 50 0 0.0 0.0 0.00 0.00 0.00 93 1018.4
20260502035515 50 0 0.0 0.0 0.00 0.00 0.00 93 1018.4
20260502035015 50 0 0.0 0.0 0.00 0.00 0.00 93 1018.4
20260502034530 50 0 0.0 0.0 0.00 0.00 0.00 93 1018.4
20260502034016 50 0 0.0 0.0 0.00 0.00 0.00 93 1018.4
20260502033515 50 0 0.0 0.0 0.00 0.00 0.00 93 1018.5
20260502033035 50 0 0.0 0.0 0.00 0.00 0.00 93 1018.6
20260502032516 50 0 0.0 0.0 0.00 0.00 0.00 93 1018.7
20260502032016 50 0 0.0 0.0 0.00 0.00 0.00 93 1018.6
20260502031534 50 0 0.0 0.0 0.00 0.00 0.00 93 1018.7
20260502031016 50 0 0.0 0.0 0.00 0.00 0.00 93 1018.8
20260502030515 50 0 0.0 0.0 0.00 0.00 0.00 93 1018.9
20260502030033 50 0 0.0 0.0 0.00 0.00 0.00 93 1018.9
20260502025515 50 0 0.0 0.9 0.00 0.00 0.00 93 1018.9
20260502025015 50 0 0.0 0.9 0.00 0.00 0.00 93 1019.0
20260502024531 50 0 0.0 0.9 0.00 0.00 0.00 93 1019.1
20260502024015 51 0 0.0 0.9 0.00 0.00 0.00 93 1019.1
20260502023515 51 0 0.0 0.9 0.00 0.00 0.00 93 1019.2
20260502023030 51 0 0.0 0.0 0.00 0.00 0.00 93 1019.2
20260502022517 50 0 0.0 0.9 0.00 0.00 0.00 93 1019.3
20260502022015 50 0 0.0 0.9 0.00 0.00 0.00 93 1019.3
20260502021536 50 0 0.0 0.9 0.00 0.00 0.00 93 1019.3
20260502021016 50 0 0.0 0.0 0.00 0.00 0.00 93 1019.4
20260502020517 50 0 0.0 0.9 0.00 0.00 0.00 93 1019.5
20260502020034 50 0 0.0 0.9 0.00 0.00 0.00 93 1019.5
20260502015516 50 0 0.0 0.9 0.00 0.00 0.00 93 1019.6
20260502015016 50 0 0.0 0.9 0.00 0.00 0.00 93 1019.6
20260502014535 50 0 0.0 0.9 0.00 0.00 0.00 93 1019.6
20260502014015 50 0 0.0 0.0 0.00 0.00 0.00 93 1019.6
20260502013515 50 0 0.0 0.0 0.00 0.00 0.00 93 1019.7
20260502013031 50 0 0.0 0.0 0.00 0.00 0.00 93 1019.8
20260502012517 50 0 0.0 0.0 0.00 0.00 0.00 93 1019.9
20260502012019 50 0 0.0 0.0 0.00 0.00 0.00 93 1019.9
20260502011531 50 0 0.0 0.9 0.00 0.00 0.00 93 1020.0
20260502011016 50 0 0.0 0.9 0.00 0.00 0.00 93 1020.0
20260502010515 50 0 0.0 0.0 0.00 0.00 0.00 93 1020.0
20260502010047 50 0 0.0 0.0 0.00 0.00 0.00 93 1020.0
20260502005515 50 0 0.0 0.0 0.00 0.00 0.00 93 1020.1
20260502005015 50 0 0.0 0.9 0.00 0.00 0.00 93 1020.1
20260502004547 50 0 0.0 0.9 0.00 0.00 0.00 93 1020.2
20260502004015 50 0 0.0 0.9 0.00 0.00 0.00 93 1020.2
20260502003516 50 0 0.0 0.9 0.00 0.00 0.00 93 1020.2
20260502003031 50 0 0.0 0.9 0.00 0.00 0.00 93 1020.2
20260502002515 50 0 0.0 0.0 0.00 0.00 0.00 93 1020.2
20260502002016 50 0 0.0 0.0 0.00 0.00 0.00 93 1020.3
20260502001537 49 0 0.0 0.0 0.00 0.00 0.00 93 1020.4
20260502001016 49 0 0.0 0.0 0.00 0.00 0.00 93 1020.4
20260502000515 49 0 0.0 0.0 0.00 0.00 0.00 92 1020.4
20260502000035 50 0 0.0 0.0 0.00 0.00 0.00 93 1020.4
20260501235518 50 0 0.0 0.0 0.00 0.00 0.00 93 1020.5
20260501235017 49 0 0.0 0.0 0.00 0.00 0.00 93 1020.5
20260501234535 49 0 0.0 0.0 0.00 0.00 0.00 93 1020.5
20260501234020 49 0 0.0 0.0 0.00 0.00 0.00 93 1020.5
20260501233515 49 0 0.0 0.0 0.00 0.00 0.00 93 1020.6
20260501233032 49 0 0.0 0.0 0.00 0.00 0.00 93 1020.6
20260501232518 48 0 0.0 0.0 0.00 0.00 0.00 93 1020.6
20260501232015 48 0 0.0 0.0 0.00 0.00 0.00 93 1020.8
20260501231532 47 0 0.0 0.0 0.00 0.00 0.00 91 1020.7
20260501231015 47 0 0.0 0.0 0.00 0.00 0.00 91 1020.7
20260501230519 48 0 0.0 0.0 0.00 0.00 0.00 91 1020.7
20260501230031 49 0 0.0 0.0 0.00 0.00 0.00 92 1020.7
20260501225515 49 0 0.0 0.0 0.00 0.00 0.00 92 1020.7
20260501225016 49 0 0.0 0.0 0.00 0.00 0.00 92 1020.8
20260501224533 49 0 0.0 0.0 0.00 0.00 0.00 91 1020.7
20260501224016 50 0 0.0 0.0 0.00 0.00 0.00 91 1020.8
20260501223518 50 0 0.0 0.0 0.00 0.00 0.00 92 1020.8
20260501223030 50 0 0.0 0.9 0.00 0.00 0.00 92 1020.9
20260501222516 51 0 0.0 1.7 0.00 0.00 0.00 92 1020.8
20260501222017 51 0 0.0 1.7 0.00 0.00 0.00 92 1020.9
20260501221533 51 0 0.0 0.9 0.00 0.00 0.00 92 1021.0
20260501221016 51 300 0.0 1.7 0.00 0.00 0.00 92 1021.0
20260501220517 51 0 0.0 3.5 0.00 0.00 0.00 92 1021.0
20260501220037 51 297 0.9 3.5 0.00 0.00 0.00 92 1021.0
20260501215515 51 297 0.9 2.6 0.00 0.01 0.00 92 1021.0
20260501215016 51 302 0.0 1.7 0.00 0.01 0.00 92 1021.1
20260501214532 50 300 0.0 1.7 0.00 0.01 0.00 92 1021.1
20260501214015 50 0 0.0 0.9 0.00 0.01 0.00 92 1021.1
20260501213514 50 307 0.0 0.9 0.00 0.01 0.00 92 1021.0
20260501213045 50 307 0.0 0.9 0.00 0.01 0.00 92 1021.1
20260501212515 50 0 0.0 0.9 0.00 0.01 0.00 92 1021.1
20260501212016 50 0 0.0 0.9 0.00 0.01 0.00 92 1021.2
20260501211530 49 0 0.0 0.0 0.00 0.01 0.00 92 1021.1
20260501211015 49 0 0.0 0.0 0.00 0.01 0.00 92 1021.1